,,Stat5,,Stat1,,Stat2,,Stat3,,Stat4,,Wind1,,Wind1,
time,status,PA1M_AVG,status,PR1M_SUM,status,RH1M_AVG,status,SR1M_AVG,status,TA1M_AVG,status,W1dAve1m,status,W1sAve1m,
2000-03-26, 00:00:01,VALID,917.701,VALID,0,VALID,99.957,VALID,0.0339617,VALID,19.0195,VALID,81,VALID,0.317645,
2000-03-26, 00:01:00,VALID,917.693,VALID,0,VALID,99.9608,VALID,0,VALID,19.0175,VALID,90,VALID,0,
2000-03-26, 00:02:00,VALID,917.692,VALID,0,VALID,99.9735,VALID,-0.0169808,VALID,19.017,VALID,91,VALID,0,
2000-03-26, 00:03:00,VALID,917.685,VALID,0,VALID,99.9697,VALID,0,VALID,18.9909,VALID,49,VALID,0.233686,
2000-03-26, 00:04:01,VALID,917.681,VALID,0,VALID,99.9621,VALID,-0.0169808,VALID,18.9884,VALID,46,VALID,0.498972,
2000-03-26, 00:05:01,VALID,917.672,VALID,0,VALID,99.9784,VALID,0,VALID,18.9785,VALID,69,VALID,0.246622,
2000-03-26, 00:06:01,VALID,917.662,VALID,0,VALID,99.9934,VALID,0,VALID,18.9974,VALID,358,VALID,0.170089,
2000-03-26, 00:07:01,VALID,917.663,VALID,0,VALID,99.999,VALID,0,VALID,19.0138,VALID,280,VALID,0,
2000-03-26, 00:08:01,VALID,917.676,VALID,0,VALID,100,VALID,0,VALID,19.0523,VALID,276,VALID,0,
2000-03-26, 00:09:01,VALID,917.674,VALID,0,VALID,100,VALID,0,VALID,19.0945,VALID,264,VALID,0,
2000-03-26, 00:10:00,VALID,917.671,VALID,0,VALID,100,VALID,-0.0339617,VALID,19.1367,VALID,263,VALID,0,
2000-03-26, 00:11:01,VALID,917.675,VALID,0,VALID,100,VALID,-0.0339617,VALID,19.1497,VALID,263,VALID,0,
2000-03-26, 00:12:01,VALID,917.649,VALID,0,VALID,100,VALID,-0.0169808,VALID,19.1559,VALID,263,VALID,0,
2000-03-26, 00:13:01,VALID,917.62,VALID,0,VALID,100,VALID,-0.0169808,VALID,19.1626,VALID,263,VALID,0,
2000-03-26, 00:14:01,VALID,917.601,VALID,0,VALID,100,VALID,0,VALID,19.1534,VALID,263,VALID,0,
2000-03-26, 00:15:01,VALID,917.576,VALID,0,VALID,100,VALID,-0.0339617,VALID,19.1556,VALID,263,VALID,0,
2000-03-26, 00:16:01,VALID,917.562,VALID,0,VALID,100,VALID,-0.0169808,VALID,19.166,VALID,263,VALID,0,
2000-03-26, 00:17:01,VALID,917.523,VALID,0,VALID,100,VALID,-0.0169808,VALID,19.1375,VALID,263,VALID,0,
2000-03-26, 00:18:01,VALID,917.505,VALID,0,VALID,100,VALID,-0.0509425,VALID,19.0918,VALID,263,VALID,0,
2000-03-26, 00:19:01,VALID,917.49,VALID,0,VALID,100,VALID,-0.0169808,VALID,19.0532,VALID,284,VALID,0,
2000-03-26, 00:20:01,VALID,917.467,VALID,0,VALID,100,VALID,-0.0679233,VALID,19.0113,VALID,295,VALID,0,
2000-03-26, 00:21:01,VALID,917.44,VALID,0,VALID,100,VALID,-0.0339617,VALID,19.0009,VALID,295,VALID,0,
2000-03-26, 00:22:01,VALID,917.418,VALID,0,VALID,100,VALID,-0.0169808,VALID,19.0048,VALID,295,VALID,0,
2000-03-26, 00:23:01,VALID,917.403,VALID,0,VALID,100,VALID,0,VALID,18.9981,VALID,295,VALID,0,
2000-03-26, 00:24:01,VALID,917.386,VALID,0,VALID,100,VALID,0,VALID,19.0297,VALID,295,VALID,0,
2000-03-26, 00:25:01,VALID,917.36,VALID,0,VALID,100,VALID,0,VALID,19.0202,VALID,295,VALID,0,
2000-03-26, 00:26:01,VALID,917.349,VALID,0,VALID,100,VALID,-0.0169808,VALID,19.0078,VALID,295,VALID,0,
2000-03-26, 00:27:01,VALID,917.325,VALID,0.2,VALID,100,VALID,0,VALID,18.9916,VALID,295,VALID,0,
2000-03-26, 00:28:01,VALID,917.29,VALID,0,VALID,100,VALID,0.0169808,VALID,18.9979,VALID,295,VALID,0,
2000-03-26, 00:29:01,VALID,917.242,VALID,0,VALID,100,VALID,-0.0169808,VALID,19.0046,VALID,295,VALID,0,
2000-03-26, 00:30:00,VALID,917.205,VALID,0,VALID,100,VALID,-0.0169808,VALID,19.0172,VALID,295,VALID,0,
2000-03-26, 00:31:00,VALID,917.158,VALID,0,VALID,100,VALID,-0.0169808,VALID,19.017,VALID,295,VALID,0,
2000-03-26, 00:32:00,VALID,917.122,VALID,0,VALID,100,VALID,-0.0339617,VALID,18.9976,VALID,295,VALID,0,
2000-03-26, 00:33:00,VALID,917.083,VALID,0,VALID,100,VALID,0,VALID,18.9916,VALID,295,VALID,0,
2000-03-26, 00:34:00,VALID,917.043,VALID,0,VALID,100,VALID,-0.0339617,VALID,18.9919,VALID,294,VALID,0,
2000-03-26, 00:35:00,VALID,917.017,VALID,0,VALID,100,VALID,-0.0169808,VALID,18.9688,VALID,294,VALID,0,
2000-03-26, 00:36:00,VALID,917.001,VALID,0,VALID,100,VALID,0,VALID,18.9494,VALID,294,VALID,0,
2000-03-26, 00:37:00,VALID,916.986,VALID,0,VALID,100,VALID,-0.0169808,VALID,18.9333,VALID,294,VALID,0,
2000-03-26, 00:38:00,VALID,916.976,VALID,0,VALID,100,VALID,-0.0339617,VALID,18.9236,VALID,294,VALID,0,
2000-03-26, 00:39:00,VALID,916.986,VALID,0,VALID,100,VALID,0,VALID,18.9298,VALID,296,VALID,0,
2000-03-26, 00:40:00,VALID,916.985,VALID,0,VALID,100,VALID,0,VALID,18.9298,VALID,299,VALID,0,
2000-03-26, 00:41:00,VALID,916.985,VALID,0,VALID,100,VALID,0,VALID,18.9208,VALID,296,VALID,0,
2000-03-26, 00:42:00,VALID,916.998,VALID,0,VALID,100,VALID,-0.0169808,VALID,18.9303,VALID,289,VALID,0,
2000-03-26, 00:43:00,VALID,917.001,VALID,0,VALID,100,VALID,0,VALID,18.94,VALID,289,VALID,0,
2000-03-26, 00:44:00,VALID,917.012,VALID,0,VALID,100,VALID,0,VALID,18.9434,VALID,290,VALID,0,
2000-03-26, 00:45:00,VALID,917.021,VALID,0,VALID,100,VALID,-0.0339617,VALID,18.9271,VALID,290,VALID,0,
2000-03-26, 00:46:00,VALID,917.035,VALID,0,VALID,100,VALID,-0.0339617,VALID,18.9146,VALID,290,VALID,0,
2000-03-26, 00:47:00,VALID,917.038,VALID,0.2,VALID,100,VALID,-0.0509425,VALID,18.9141,VALID,290,VALID,0,
2000-03-26, 00:48:00,VALID,917.038,VALID,0,VALID,100,VALID,-0.0169808,VALID,18.9238,VALID,290,VALID,0,
2000-03-26, 00:49:00,VALID,917.035,VALID,0,VALID,100,VALID,-0.0169808,VALID,18.9273,VALID,282,VALID,0,
2000-03-26, 00:50:00,VALID,917.033,VALID,0,VALID,100,VALID,-0.0169808,VALID,18.9365,VALID,237,VALID,0,
2000-03-26, 00:51:00,VALID,917.036,VALID,0,VALID,100,VALID,0,VALID,18.9462,VALID,237,VALID,0,
2000-03-26, 00:52:00,VALID,917.022,VALID,0,VALID,100,VALID,-0.0169808,VALID,18.966,VALID,237,VALID,0,
2000-03-26, 00:53:00,VALID,917.018,VALID,0,VALID,100,VALID,0.0169808,VALID,18.9556,VALID,237,VALID,0,
2000-03-26, 00:54:00,VALID,917.018,VALID,0,VALID,100,VALID,0.0849042,VALID,18.9741,VALID,237,VALID,0,
2000-03-26, 00:55:00,VALID,917.013,VALID,0,VALID,100,VALID,0.101885,VALID,18.9584,VALID,237,VALID,0,
2000-03-26, 00:56:00,VALID,917,VALID,0,VALID,100,VALID,0.0679233,VALID,18.9259,VALID,246,VALID,0,
2000-03-26, 00:57:00,VALID,917.01,VALID,0,VALID,100,VALID,0.0849042,VALID,18.9062,VALID,252,VALID,0.078342,
2000-03-26, 00:58:00,VALID,917.013,VALID,0,VALID,100,VALID,0.101885,VALID,18.8903,VALID,240,VALID,0,
2000-03-26, 00:59:00,VALID,917.01,VALID,0,VALID,100,VALID,0.0849042,VALID,18.8871,VALID,230,VALID,0,
2000-03-26, 01:00:00,VALID,917.023,VALID,0,VALID,100,VALID,0.0849042,VALID,18.8737,VALID,227,VALID,0,
2000-03-26, 01:01:00,VALID,917.038,VALID,0,VALID,100,VALID,0.101885,VALID,18.8543,VALID,227,VALID,0,
2000-03-26, 01:02:00,VALID,917.048,VALID,0,VALID,100,VALID,0.0849042,VALID,18.8417,VALID,227,VALID,0,
2000-03-26, 01:03:00,VALID,917.049,VALID,0,VALID,100,VALID,0.0679233,VALID,18.8295,VALID,227,VALID,0,
2000-03-26, 01:04:00,VALID,917.057,VALID,0,VALID,100,VALID,-0.0679233,VALID,18.811,VALID,247,VALID,0,
2000-03-26, 01:05:00,VALID,917.058,VALID,0,VALID,100,VALID,-0.0169808,VALID,18.8117,VALID,251,VALID,0,
2000-03-26, 01:06:00,VALID,917.044,VALID,0,VALID,100,VALID,-0.0169808,VALID,18.8078,VALID,252,VALID,0,
2000-03-26, 01:07:00,VALID,917.047,VALID,0,VALID,100,VALID,-0.0169808,VALID,18.817,VALID,268,VALID,0,
2000-03-26, 01:08:00,VALID,917.027,VALID,0,VALID,100,VALID,-0.0169808,VALID,18.8138,VALID,285,VALID,0,
2000-03-26, 01:09:00,VALID,917.033,VALID,0,VALID,100,VALID,-0.0509425,VALID,18.8274,VALID,282,VALID,0,
2000-03-26, 01:10:00,VALID,917.029,VALID,0,VALID,100,VALID,-0.0679233,VALID,18.8274,VALID,280,VALID,0,
2000-03-26, 01:11:00,VALID,917.023,VALID,0.2,VALID,100,VALID,-0.0509425,VALID,18.811,VALID,276,VALID,0,
2000-03-26, 01:12:00,VALID,917.035,VALID,0,VALID,100,VALID,-0.0679233,VALID,18.8053,VALID,275,VALID,0,
2000-03-26, 01:13:00,VALID,917.031,VALID,0,VALID,100,VALID,-0.0679233,VALID,18.8115,VALID,277,VALID,0,
2000-03-26, 01:14:00,VALID,917.026,VALID,0,VALID,100,VALID,-0.0849042,VALID,18.7919,VALID,276,VALID,0.363086,
2000-03-26, 01:15:00,VALID,917.014,VALID,0,VALID,100,VALID,-0.0339617,VALID,18.7887,VALID,268,VALID,0.194196,
2000-03-26, 01:16:00,VALID,917.01,VALID,0,VALID,100,VALID,-0.0169808,VALID,18.8145,VALID,269,VALID,0.0199219,
2000-03-26, 01:17:00,VALID,916.992,VALID,0,VALID,100,VALID,-0.0509425,VALID,18.8274,VALID,284,VALID,0.26888,
2000-03-26, 01:18:00,VALID,916.97,VALID,0,VALID,100,VALID,-0.0169808,VALID,18.8277,VALID,284,VALID,0,
2000-03-26, 01:19:00,VALID,916.953,VALID,0,VALID,100,VALID,-0.0339617,VALID,18.8438,VALID,283,VALID,0,
2000-03-26, 01:20:00,VALID,916.933,VALID,0,VALID,100,VALID,-0.0339617,VALID,18.8466,VALID,281,VALID,0,
2000-03-26, 01:21:00,VALID,916.917,VALID,0,VALID,100,VALID,-0.0339617,VALID,18.8597,VALID,265,VALID,0.258898,
2000-03-26, 01:22:00,VALID,916.911,VALID,0,VALID,100,VALID,-0.0339617,VALID,18.8537,VALID,284,VALID,0.104492,
2000-03-26, 01:23:00,VALID,916.905,VALID,0,VALID,100,VALID,-0.0169808,VALID,18.8341,VALID,258,VALID,0,
2000-03-26, 01:24:00,VALID,916.901,VALID,0,VALID,100,VALID,-0.0679233,VALID,18.8274,VALID,276,VALID,0.00117188,
2000-03-26, 01:25:00,VALID,916.911,VALID,0,VALID,100,VALID,-0.0339617,VALID,18.8177,VALID,274,VALID,0,
2000-03-26, 01:26:00,VALID,916.921,VALID,0,VALID,100,VALID,-0.0509425,VALID,18.8083,VALID,270,VALID,0,
2000-03-26, 01:27:00,VALID,916.92,VALID,0,VALID,100,VALID,-0.0339617,VALID,18.8309,VALID,270,VALID,0,
2000-03-26, 01:28:00,VALID,916.942,VALID,0,VALID,100,VALID,-0.0169808,VALID,18.8304,VALID,264,VALID,0,
2000-03-26, 01:29:00,VALID,916.942,VALID,0,VALID,100,VALID,0,VALID,18.85,VALID,225,VALID,0,
2000-03-26, 01:30:00,VALID,916.953,VALID,0,VALID,100,VALID,-0.0169808,VALID,18.8373,VALID,217,VALID,0,
2000-03-26, 01:31:00,VALID,916.958,VALID,0,VALID,100,VALID,-0.0169808,VALID,18.8306,VALID,218,VALID,0,
2000-03-26, 01:32:00,VALID,916.968,VALID,0,VALID,100,VALID,-0.0339617,VALID,18.8212,VALID,207,VALID,0,
2000-03-26, 01:33:00,VALID,916.98,VALID,0,VALID,100,VALID,-0.0509425,VALID,18.815,VALID,189,VALID,0.469835,
2000-03-26, 01:34:00,VALID,916.986,VALID,0,VALID,100,VALID,-0.0339617,VALID,18.7822,VALID,195,VALID,0.549609,
2000-03-26, 01:35:00,VALID,916.988,VALID,0,VALID,100,VALID,-0.0169808,VALID,18.7661,VALID,194,VALID,0.104241,
2000-03-26, 01:36:00,VALID,916.983,VALID,0,VALID,100,VALID,-0.0339617,VALID,18.7594,VALID,202,VALID,0,
2000-03-26, 01:37:00,VALID,916.974,VALID,0,VALID,100,VALID,-0.0509425,VALID,18.7561,VALID,203,VALID,0,
2000-03-26, 01:38:00,VALID,916.968,VALID,0,VALID,100,VALID,-0.0339617,VALID,18.7628,VALID,208,VALID,0,
2000-03-26, 01:39:00,VALID,916.951,VALID,0,VALID,100,VALID,0.0339617,VALID,18.7383,VALID,240,VALID,0,
2000-03-26, 01:40:00,VALID,916.938,VALID,0,VALID,100,VALID,0.0679233,VALID,18.745,VALID,243,VALID,0.628125,
2000-03-26, 01:41:00,VALID,916.935,VALID,0,VALID,100,VALID,0.0849042,VALID,18.745,VALID,240,VALID,0.519748,
2000-03-26, 01:42:00,VALID,916.924,VALID,0,VALID,100,VALID,0.0849042,VALID,18.752,VALID,242,VALID,0.235938,
2000-03-26, 01:43:00,VALID,916.923,VALID,0.2,VALID,100,VALID,0.0849042,VALID,18.7587,VALID,240,VALID,0.227902,
2000-03-26, 01:44:00,VALID,916.918,VALID,0,VALID,100,VALID,0.0509425,VALID,18.755,VALID,209,VALID,0.153125,
2000-03-26, 01:45:00,VALID,916.926,VALID,0,VALID,100,VALID,0.0509425,VALID,18.7457,VALID,192,VALID,0.679688,
2000-03-26, 01:46:00,VALID,916.936,VALID,0,VALID,100,VALID,0.0339617,VALID,18.7427,VALID,171,VALID,0.457422,
2000-03-26, 01:47:00,VALID,916.94,VALID,0,VALID,100,VALID,0.0339617,VALID,18.7261,VALID,155,VALID,0.564955,
2000-03-26, 01:48:00,VALID,916.95,VALID,0,VALID,100,VALID,0.0169808,VALID,18.7554,VALID,139,VALID,0.574609,
2000-03-26, 01:49:00,VALID,916.955,VALID,0,VALID,100,VALID,0.0679233,VALID,18.7453,VALID,135,VALID,0.602648,
2000-03-26, 01:50:00,VALID,916.962,VALID,0,VALID,100,VALID,0.0169808,VALID,18.7616,VALID,131,VALID,0.463867,
2000-03-26, 01:51:00,VALID,916.971,VALID,0,VALID,100,VALID,0.0339617,VALID,18.7487,VALID,160,VALID,0.416071,
2000-03-26, 01:52:00,VALID,916.97,VALID,0,VALID,100,VALID,0.101885,VALID,18.7326,VALID,170,VALID,0.254102,
2000-03-26, 01:53:00,VALID,916.967,VALID,0,VALID,100,VALID,0.0169808,VALID,18.713,VALID,199,VALID,0.53559,
2000-03-26, 01:54:00,VALID,916.966,VALID,0,VALID,100,VALID,-0.0509425,VALID,18.7213,VALID,212,VALID,0.751953,
2000-03-26, 01:55:00,VALID,916.957,VALID,0,VALID,100,VALID,-0.0339617,VALID,18.734,VALID,209,VALID,0.360938,
2000-03-26, 01:56:00,VALID,916.949,VALID,0,VALID,100,VALID,-0.0169808,VALID,18.7407,VALID,236,VALID,0.370117,
2000-03-26, 01:57:00,VALID,916.938,VALID,0,VALID,100,VALID,-0.0339617,VALID,18.7363,VALID,208,VALID,0.402344,
2000-03-26, 01:58:00,VALID,916.939,VALID,0,VALID,100,VALID,-0.0679233,VALID,18.7566,VALID,193,VALID,0.476953,
2000-03-26, 01:59:00,VALID,916.931,VALID,0,VALID,100,VALID,-0.0679233,VALID,18.7561,VALID,194,VALID,0.45067,
2000-03-26, 02:00:00,VALID,916.927,VALID,0,VALID,100,VALID,-0.0169808,VALID,18.7663,VALID,194,VALID,0.10332,
2000-03-26, 02:01:00,VALID,916.924,VALID,0,VALID,100,VALID,-0.0339617,VALID,18.7566,VALID,193,VALID,0,
2000-03-26, 02:02:00,VALID,916.932,VALID,0,VALID,100,VALID,-0.0679233,VALID,18.7668,VALID,182,VALID,0,
2000-03-26, 02:03:00,VALID,916.933,VALID,0,VALID,100,VALID,-0.0169808,VALID,18.7601,VALID,154,VALID,0,
2000-03-26, 02:04:00,VALID,916.924,VALID,0.2,VALID,100,VALID,-0.0169808,VALID,18.7859,VALID,151,VALID,0.107031,
2000-03-26, 02:05:00,VALID,916.911,VALID,0,VALID,100,VALID,-0.0679233,VALID,18.8055,VALID,158,VALID,0.604384,
2000-03-26, 02:06:00,VALID,916.891,VALID,0,VALID,100,VALID,-0.0509425,VALID,18.7757,VALID,175,VALID,0.666016,
2000-03-26, 02:07:00,VALID,916.878,VALID,0,VALID,100,VALID,-0.0169808,VALID,18.7787,VALID,148,VALID,0.539063,
2000-03-26, 02:08:00,VALID,916.859,VALID,0,VALID,100,VALID,-0.0169808,VALID,18.7787,VALID,160,VALID,0.55,
2000-03-26, 02:09:00,VALID,916.857,VALID,0,VALID,100,VALID,-0.0169808,VALID,18.7889,VALID,159,VALID,0.732856,
2000-03-26, 02:10:00,VALID,916.858,VALID,0,VALID,100,VALID,-0.0679233,VALID,18.7921,VALID,147,VALID,0.734961,
2000-03-26, 02:11:00,VALID,916.843,VALID,0,VALID,100,VALID,-0.0509425,VALID,18.7924,VALID,183,VALID,0.383482,
2000-03-26, 02:12:00,VALID,916.849,VALID,0,VALID,100,VALID,-0.0509425,VALID,18.7859,VALID,195,VALID,0.448242,
2000-03-26, 02:13:00,VALID,916.847,VALID,0,VALID,100,VALID,-0.0509425,VALID,18.7822,VALID,202,VALID,0.400391,
2000-03-26, 02:14:00,VALID,916.836,VALID,0,VALID,100,VALID,-0.0849042,VALID,18.7921,VALID,208,VALID,0.831445,
2000-03-26, 02:15:00,VALID,916.844,VALID,0,VALID,100,VALID,-0.0339617,VALID,18.7926,VALID,218,VALID,0.568527,
2000-03-26, 02:16:00,VALID,916.833,VALID,0,VALID,100,VALID,-0.0339617,VALID,18.8021,VALID,219,VALID,0.624805,
2000-03-26, 02:17:00,VALID,916.836,VALID,0,VALID,100,VALID,-0.0339617,VALID,18.7951,VALID,210,VALID,0.587891,
2000-03-26, 02:18:00,VALID,916.818,VALID,0,VALID,100,VALID,-0.0509425,VALID,18.7854,VALID,213,VALID,0.40918,
2000-03-26, 02:19:00,VALID,916.81,VALID,0,VALID,100,VALID,-0.0169808,VALID,18.7817,VALID,208,VALID,0.5,
2000-03-26, 02:20:00,VALID,916.796,VALID,0,VALID,100,VALID,-0.0169808,VALID,18.7882,VALID,201,VALID,0.479297,
2000-03-26, 02:21:00,VALID,916.776,VALID,0,VALID,100,VALID,-0.0679233,VALID,18.7783,VALID,224,VALID,0.658854,
2000-03-26, 02:22:00,VALID,916.767,VALID,0,VALID,100,VALID,-0.0169808,VALID,18.785,VALID,218,VALID,0.383203,
2000-03-26, 02:23:00,VALID,916.755,VALID,0,VALID,100,VALID,0,VALID,18.7852,VALID,218,VALID,0.328125,
2000-03-26, 02:24:00,VALID,916.741,VALID,0,VALID,100,VALID,0,VALID,18.7755,VALID,220,VALID,0.569531,
2000-03-26, 02:25:00,VALID,916.736,VALID,0,VALID,100,VALID,-0.0339617,VALID,18.769,VALID,220,VALID,0.31901,
2000-03-26, 02:26:00,VALID,916.736,VALID,0,VALID,100,VALID,0,VALID,18.769,VALID,227,VALID,0.593945,
2000-03-26, 02:27:00,VALID,916.732,VALID,0,VALID,100,VALID,0,VALID,18.7591,VALID,228,VALID,0.577902,
2000-03-26, 02:28:00,VALID,916.722,VALID,0.2,VALID,100,VALID,-0.0169808,VALID,18.7561,VALID,238,VALID,0.504492,
2000-03-26, 02:29:00,VALID,916.723,VALID,0,VALID,100,VALID,-0.0339617,VALID,18.7628,VALID,225,VALID,0.622613,
2000-03-26, 02:30:00,VALID,916.715,VALID,0,VALID,100,VALID,-0.0339617,VALID,18.7621,VALID,230,VALID,0.295508,
2000-03-26, 02:31:00,VALID,916.707,VALID,0,VALID,100,VALID,-0.0169808,VALID,18.7728,VALID,227,VALID,0.683929,
2000-03-26, 02:32:00,VALID,916.702,VALID,0,VALID,100,VALID,-0.0339617,VALID,18.7661,VALID,220,VALID,1.07676,
2000-03-26, 02:33:00,VALID,916.692,VALID,0,VALID,100,VALID,-0.0169808,VALID,18.7559,VALID,209,VALID,0.71658,
2000-03-26, 02:34:00,VALID,916.684,VALID,0,VALID,100,VALID,-0.0169808,VALID,18.7499,VALID,214,VALID,0.381055,
2000-03-26, 02:35:00,VALID,916.685,VALID,0,VALID,100,VALID,-0.0169808,VALID,18.7365,VALID,218,VALID,0.538616,
2000-03-26, 02:36:00,VALID,916.672,VALID,0,VALID,100,VALID,-0.0169808,VALID,18.7529,VALID,210,VALID,0.235742,
2000-03-26, 02:37:00,VALID,916.661,VALID,0,VALID,100,VALID,0,VALID,18.7395,VALID,176,VALID,0.562717,
2000-03-26, 02:38:00,VALID,916.657,VALID,0,VALID,100,VALID,-0.0339617,VALID,18.7338,VALID,181,VALID,0.5375,
2000-03-26, 02:39:00,VALID,916.649,VALID,0,VALID,100,VALID,0.0679233,VALID,18.7192,VALID,188,VALID,0.581027,
2000-03-26, 02:40:00,VALID,916.639,VALID,0,VALID,100,VALID,0.101885,VALID,18.71,VALID,185,VALID,0.0292969,
2000-03-26, 02:41:00,VALID,916.609,VALID,0,VALID,100,VALID,0.0679233,VALID,18.6904,VALID,185,VALID,0,
2000-03-26, 02:42:00,VALID,916.604,VALID,0,VALID,100,VALID,0.0679233,VALID,18.6839,VALID,184,VALID,0,
2000-03-26, 02:43:00,VALID,916.598,VALID,0,VALID,100,VALID,0.101885,VALID,18.6934,VALID,183,VALID,0,
2000-03-26, 02:44:00,VALID,916.579,VALID,0,VALID,100,VALID,0.0679233,VALID,18.7097,VALID,173,VALID,0,
2000-03-26, 02:45:00,VALID,916.562,VALID,0,VALID,100,VALID,0.0679233,VALID,18.6968,VALID,168,VALID,0,
2000-03-26, 02:46:00,VALID,916.551,VALID,0.2,VALID,100,VALID,0.0509425,VALID,18.7102,VALID,167,VALID,0,
2000-03-26, 02:47:00,VALID,916.527,VALID,0,VALID,100,VALID,0,VALID,18.7028,VALID,165,VALID,0,
2000-03-26, 02:48:00,VALID,916.521,VALID,0,VALID,100,VALID,0.0509425,VALID,18.7229,VALID,163,VALID,0,
2000-03-26, 02:49:00,VALID,916.508,VALID,0,VALID,100,VALID,0.101885,VALID,18.7264,VALID,162,VALID,0,
2000-03-26, 02:50:00,VALID,916.492,VALID,0,VALID,100,VALID,0.0339617,VALID,18.7331,VALID,162,VALID,0,
2000-03-26, 02:51:00,VALID,916.483,VALID,0,VALID,100,VALID,0.0849042,VALID,18.7321,VALID,162,VALID,0,
2000-03-26, 02:52:00,VALID,916.486,VALID,0,VALID,100,VALID,0.0849042,VALID,18.7326,VALID,162,VALID,0,
2000-03-26, 02:53:00,VALID,916.475,VALID,0,VALID,100,VALID,0.0679233,VALID,18.7132,VALID,162,VALID,0,
2000-03-26, 02:54:00,VALID,916.479,VALID,0,VALID,100,VALID,-0.101885,VALID,18.7114,VALID,162,VALID,0,
2000-03-26, 02:55:00,VALID,916.481,VALID,0,VALID,100,VALID,-0.0679233,VALID,18.7206,VALID,162,VALID,0,
2000-03-26, 02:56:00,VALID,916.477,VALID,0,VALID,100,VALID,-0.0849042,VALID,18.7245,VALID,162,VALID,0,
2000-03-26, 02:57:00,VALID,916.495,VALID,0,VALID,100,VALID,-0.0849042,VALID,18.7213,VALID,162,VALID,0,
2000-03-26, 02:58:00,VALID,916.499,VALID,0,VALID,100,VALID,-0.0679233,VALID,18.7174,VALID,162,VALID,0,
2000-03-26, 02:59:00,VALID,916.511,VALID,0.2,VALID,100,VALID,-0.0679233,VALID,18.731,VALID,162,VALID,0,
2000-03-26, 03:00:00,VALID,916.52,VALID,0,VALID,100,VALID,-0.0679233,VALID,18.7211,VALID,162,VALID,0,
2000-03-26, 03:01:00,VALID,916.514,VALID,0,VALID,100,VALID,-0.0849042,VALID,18.7347,VALID,162,VALID,0,
2000-03-26, 03:02:00,VALID,916.533,VALID,0,VALID,100,VALID,-0.0849042,VALID,18.7241,VALID,162,VALID,0,
2000-03-26, 03:03:00,VALID,916.518,VALID,0,VALID,100,VALID,-0.0849042,VALID,18.7275,VALID,162,VALID,0,
2000-03-26, 03:04:00,VALID,916.519,VALID,0,VALID,100,VALID,-0.101885,VALID,18.7442,VALID,162,VALID,0,
2000-03-26, 03:05:00,VALID,916.518,VALID,0,VALID,100,VALID,-0.0849042,VALID,18.7506,VALID,162,VALID,0,
2000-03-26, 03:06:00,VALID,916.527,VALID,0,VALID,100,VALID,-0.0849042,VALID,18.7243,VALID,162,VALID,0,
2000-03-26, 03:07:00,VALID,916.52,VALID,0,VALID,100,VALID,-0.101885,VALID,18.7181,VALID,162,VALID,0,
2000-03-26, 03:08:00,VALID,916.533,VALID,0,VALID,100,VALID,-0.0849042,VALID,18.6975,VALID,162,VALID,0,
2000-03-26, 03:09:00,VALID,916.542,VALID,0,VALID,100,VALID,0.0509425,VALID,18.7038,VALID,162,VALID,0,
2000-03-26, 03:10:00,VALID,916.539,VALID,0,VALID,100,VALID,0.0169808,VALID,18.7137,VALID,162,VALID,0,
2000-03-26, 03:11:00,VALID,916.543,VALID,0,VALID,100,VALID,0,VALID,18.7065,VALID,162,VALID,0,
2000-03-26, 03:12:00,VALID,916.53,VALID,0.2,VALID,100,VALID,0.0169808,VALID,18.7102,VALID,162,VALID,0,
2000-03-26, 03:13:00,VALID,916.535,VALID,0,VALID,100,VALID,0.0169808,VALID,18.6943,VALID,162,VALID,0,
2000-03-26, 03:14:00,VALID,916.528,VALID,0,VALID,100,VALID,0,VALID,18.6655,VALID,153,VALID,0,
2000-03-26, 03:15:00,VALID,916.525,VALID,0,VALID,100,VALID,0,VALID,18.6198,VALID,145,VALID,0.0290179,
2000-03-26, 03:16:00,VALID,916.525,VALID,0,VALID,100,VALID,0,VALID,18.6103,VALID,138,VALID,0.687109,
2000-03-26, 03:17:00,VALID,916.516,VALID,0,VALID,100,VALID,0,VALID,18.6168,VALID,138,VALID,0.724392,
2000-03-26, 03:18:00,VALID,916.506,VALID,0,VALID,100,VALID,0,VALID,18.5972,VALID,143,VALID,0.604883,
2000-03-26, 03:19:00,VALID,916.512,VALID,0,VALID,100,VALID,0.0169808,VALID,18.5843,VALID,148,VALID,0.636607,
2000-03-26, 03:20:00,VALID,916.516,VALID,0,VALID,100,VALID,0.0169808,VALID,18.5744,VALID,151,VALID,0.488281,
2000-03-26, 03:21:00,VALID,916.504,VALID,0,VALID,100,VALID,-0.0169808,VALID,18.5617,VALID,151,VALID,0.454644,
2000-03-26, 03:22:00,VALID,916.51,VALID,0,VALID,100,VALID,0,VALID,18.5684,VALID,149,VALID,0.506445,
2000-03-26, 03:23:00,VALID,916.512,VALID,0,VALID,100,VALID,0,VALID,18.5716,VALID,148,VALID,0.422545,
2000-03-26, 03:24:00,VALID,916.504,VALID,0.2,VALID,100,VALID,-0.0679233,VALID,18.5822,VALID,148,VALID,0.111719,
2000-03-26, 03:25:00,VALID,916.493,VALID,0,VALID,100,VALID,-0.101885,VALID,18.5857,VALID,149,VALID,0,
2000-03-26, 03:26:00,VALID,916.493,VALID,0,VALID,100,VALID,-0.101885,VALID,18.5795,VALID,155,VALID,0,
2000-03-26, 03:27:00,VALID,916.488,VALID,0,VALID,100,VALID,-0.0849042,VALID,18.5859,VALID,154,VALID,0.225,
2000-03-26, 03:28:00,VALID,916.471,VALID,0,VALID,100,VALID,-0.0679233,VALID,18.5926,VALID,152,VALID,0.403125,
2000-03-26, 03:29:00,VALID,916.489,VALID,0,VALID,100,VALID,-0.0849042,VALID,18.5919,VALID,151,VALID,0.0286458,
2000-03-26, 03:30:00,VALID,916.478,VALID,0,VALID,100,VALID,-0.0849042,VALID,18.6113,VALID,148,VALID,0,
2000-03-26, 03:31:00,VALID,916.478,VALID,0,VALID,100,VALID,-0.0849042,VALID,18.6344,VALID,148,VALID,0,
2000-03-26, 03:32:00,VALID,916.465,VALID,0,VALID,100,VALID,-0.0849042,VALID,18.6376,VALID,147,VALID,0,
2000-03-26, 03:33:00,VALID,916.456,VALID,0,VALID,100,VALID,-0.0849042,VALID,18.6406,VALID,147,VALID,0,
2000-03-26, 03:34:00,VALID,916.444,VALID,0,VALID,100,VALID,-0.101885,VALID,18.6473,VALID,148,VALID,0,
2000-03-26, 03:35:00,VALID,916.439,VALID,0.2,VALID,100,VALID,-0.101885,VALID,18.6371,VALID,148,VALID,0,
2000-03-26, 03:36:00,VALID,916.421,VALID,0,VALID,100,VALID,-0.101885,VALID,18.6374,VALID,166,VALID,0,
2000-03-26, 03:37:00,VALID,916.412,VALID,0,VALID,100,VALID,-0.0849042,VALID,18.644,VALID,136,VALID,0,
2000-03-26, 03:38:00,VALID,916.404,VALID,0,VALID,100,VALID,-0.0849042,VALID,18.6565,VALID,126,VALID,0,
2000-03-26, 03:39:00,VALID,916.4,VALID,0,VALID,100,VALID,0,VALID,18.6585,VALID,150,VALID,0,
2000-03-26, 03:40:00,VALID,916.391,VALID,0,VALID,100,VALID,0.0169808,VALID,18.6325,VALID,156,VALID,0,
2000-03-26, 03:41:00,VALID,916.39,VALID,0,VALID,100,VALID,0,VALID,18.6131,VALID,157,VALID,0,
2000-03-26, 03:42:00,VALID,916.376,VALID,0,VALID,100,VALID,0.0339617,VALID,18.6069,VALID,157,VALID,0,
2000-03-26, 03:43:00,VALID,916.365,VALID,0,VALID,100,VALID,0,VALID,18.6007,VALID,163,VALID,0,
2000-03-26, 03:44:00,VALID,916.362,VALID,0,VALID,100,VALID,0,VALID,18.5811,VALID,176,VALID,0,
2000-03-26, 03:45:00,VALID,916.359,VALID,0,VALID,100,VALID,-0.0169808,VALID,18.5716,VALID,175,VALID,0.503038,
2000-03-26, 03:46:00,VALID,916.347,VALID,0,VALID,100,VALID,-0.0339617,VALID,18.5522,VALID,187,VALID,0.19668,